Starlink 3232

operational
NORAD ID: 50809 Int'l Des: 2022-001 Owner: SPXS Country: US Constellation: starlink
LEOCIRCULAR

Starlink 3232について

説明を読み込み中...

リアルタイム位置

3D地球を読み込み中...

次回通過

高度履歴

Altitude vs Time

uPlot chart will show altitude changes over time

軌道要素

1 50809U 22001G 25347.69828999 .00002854 00000-0 19739-3 0 9999
2 50809 53.2149 185.1506 0001458 75.8119 284.3035 15.08829693217560
Epoch: Dec 13, 2025 • Age: 14 hours

現在のステータス

高度 539.4 km
速度 7.60 km/s
衛星直下点 13.43°N, 2.36°E
打ち上げ日 Jan 6, 2022
運用期間 3.9 years
タイプ internet

技術仕様

分類 Payload
質量 297.00 kg
乾燥質量 275.00 kg
総質量 297.00 kg
長さ 0.20 m
直径 2.80 m
スパン 9.00 m
形状 Box + pan
製造者 SPXS
バスタイプ Starlink
フェーズステータス In Orbit
所有者/国 SPXS/US

大規模コンステレーション

Loading constellations...